BAW21A EGCC-EHRD

Flight info

Callsign BAW21A
Flight time N/A
Altitude 22000
Route SONEX UL975 DESIG L603 LAMSO
Aircraft A20N/M-SDE2E3FGHIRWXY/LB1

Departure

Time 2026-05-04 16:41
Airport Manchester Airport (EGCC)

Arrival

Time N/A
Airport Rotterdam The Hague Airport (EHRD)
Time Latitude Longitude Altitude Speed Heading
2026-05-04 16:09 53.35976 -2.26978 240 ft 0 kts 290°
2026-05-04 16:20 53.35971 -2.26954 239 ft 3 kts 290°
2026-05-04 16:20 53.35958 -2.26897 239 ft 3 kts 290°
2026-05-04 16:21 53.35962 -2.26841 238 ft 0 kts 190°
2026-05-04 16:22 53.35945 -2.26837 238 ft 12 kts 161°
2026-05-04 16:22 53.35921 -2.26770 237 ft 0 kts 106°
2026-05-04 16:26 53.35920 -2.26763 237 ft 0 kts 106°
2026-05-04 16:26 53.35919 -2.26761 237 ft 1 kts 107°
2026-05-04 16:27 53.35855 -2.26689 237 ft 9 kts 173°
2026-05-04 16:28 53.35516 -2.26734 243 ft 20 kts 230°
2026-05-04 16:28 53.35331 -2.27115 252 ft 0 kts 231°
2026-05-04 16:30 53.35037 -2.27693 264 ft 25 kts 199°
2026-05-04 16:31 53.34949 -2.27681 268 ft 0 kts 172°
2026-05-04 16:35 53.34949 -2.27680 268 ft 0 kts 172°
2026-05-04 16:38 53.34945 -2.27680 268 ft 1 kts 172°
2026-05-04 16:39 53.34877 -2.27666 267 ft 17 kts 183°
2026-05-04 16:39 53.34699 -2.27967 265 ft 21 kts 231°
2026-05-04 16:40 53.34576 -2.28218 263 ft 68 kts 231°
2026-05-04 16:40 53.33326 -2.30719 804 ft 185 kts 231°
2026-05-04 16:41 53.31710 -2.34873 2380 ft 234 kts 256°
2026-05-04 16:41 53.34709 -2.41323 4716 ft 286 kts 341°
2026-05-04 16:42 53.40153 -2.43934 4945 ft 267 kts 343°
2026-05-04 16:43 53.43739 -2.45365 4942 ft 268 kts
2026-05-04 16:43 53.46681 -2.42051 4948 ft 268 kts 67°
2026-05-04 16:43 53.47209 -2.39094 4947 ft 269 kts 77°
2026-05-04 16:44 53.48756 -2.26493 7985 ft 278 kts 78°
2026-05-04 16:45 53.49526 -2.19892 9482 ft 309 kts 79°
2026-05-04 16:46 53.50795 -2.07859 10570 ft 385 kts 80°
2026-05-04 16:46 53.51752 -1.98704 12009 ft 404 kts 80°
2026-05-04 16:47 53.52613 -1.89241 13586 ft 416 kts 89°
2026-05-04 16:47 53.51557 -1.79622 15074 ft 425 kts 107°
2026-05-04 16:48 53.48656 -1.65332 17196 ft 437 kts 109°
2026-05-04 16:48 53.47701 -1.60461 17855 ft 441 kts 108°
2026-05-04 16:49 53.45858 -1.50531 19317 ft 450 kts 107°
2026-05-04 16:49 53.44034 -1.40384 20649 ft 458 kts 107°
2026-05-04 16:50 53.42169 -1.30003 21487 ft 477 kts 107°
2026-05-04 16:50 53.40298 -1.19648 24215 ft 437 kts 107°
2026-05-04 16:51 53.38729 -1.10981 24084 ft 473 kts 107°